Location: Houhaj�rvi
(61.2833°N, 23.0000°E)
Time: 19:53:27
(UTC+00:00)

Cosmos 1943 Rocket - Pass Details

Date: 27 February 2020
Orbit: 814 x 842 km, 71.0° (Epoch: 30 March)

Event Time Altitude Azimuth Distance (km) Brightness Sun altitude
Rises 19:42:00 0° 271° (W) 3,358 6.1 -27.7°
Reaches altitude 10° 19:44:41 10° 281° (W) 2,423 5.3 -27.9°
Maximum altitude 19:49:40 33° 345° (NNW) 1,345 3.6 -28.4°
Enters shadow 19:53:08 18° 40° (NE) 1,935 4.1 -28.7°
